sat.trackr.live / text

‹ back to catalog

2024-094A

NORAD 59805 · 2024-094A

PAYLOAD ACTIVE UNKNOWN

§ Identity

Operator
Country
PRC
Launch date
2024-05-20
Launch site
TAISC
Launch vehicle
Mass (kg)
RCS (m²)

External: N2YO · Heavens-Above · Gunter

§ Orbital elements

Epoch: 2026-05-25T04:53:08.968128Z

Period
94.96 min
Inclination
97.3875°
Eccentricity
0.0003195
Mean motion
15.16427319 rev/d
Perigee alt
514.4 km
Apogee alt
518.9 km
Semi-major
6,894.8 km
B*
3.3030e-4
RAAN
216.6003°
Arg perigee
279.3544°
Mean anomaly
80.7328°
Rev number
11,168

§ Raw data

2024-094A1 59805U 24094A   26145.20357602  .00006357  00000+0  33030-3 0  99912 59805  97.3875 216.6003 0003195 279.3544  80.7328 15.16427319111682

JSON: /api/v1/satellites/59805 · /tle

For live sub-satellite position, see the globe view (requires WebGL).

§ Visibility from observer

Set your observer location to see the next 7 days of passes ≥ 10°. The values pass through the URL so the page stays shareable.

No JS? Fill the form by hand. The geolocation button needs JavaScript.